Time,TemperatureF,DewpointF,PressureIn,WindDirection,WindDirectionDegrees,WindSpeedMPH,WindSpeedGustMPH,Humidity,HourlyPrecipIn,Conditions,Clouds,dailyrainin,SoftwareType,DateUTC
2013-05-03 00:02:00,35.0,31.0,-100.00,North,0,13.0,17.0,88,0.08,,,-99.99,,2013-05-03 05:02:00,
2013-05-03 00:12:00,34.0,31.0,-100.00,North,355,10.0,19.0,88,0.17,,,-99.99,,2013-05-03 05:12:00,
2013-05-03 00:21:00,34.0,31.0,-100.00,North,0,11.0,17.0,88,0.16,,,-99.99,,2013-05-03 05:21:00,
2013-05-03 00:32:00,34.0,31.0,-100.00,North,355,12.0,17.0,88,0.07,,,-99.99,,2013-05-03 05:32:00,
2013-05-03 00:42:00,34.0,31.0,-100.00,North,355,12.0,17.0,88,0.07,,,-99.99,,2013-05-03 05:42:00,
2013-05-03 00:52:00,34.0,31.0,-100.00,North,0,14.0,21.0,89,0.21,,,-99.99,,2013-05-03 05:52:00,
2013-05-03 01:02:00,34.0,31.0,-100.00,North,0,14.0,21.0,89,0.21,,,-99.99,,2013-05-03 06:02:00,
2013-05-03 01:11:00,34.0,31.0,-100.00,North,5,15.0,22.0,89,0.35,,,-99.99,,2013-05-03 06:11:00,
2013-05-03 01:21:00,34.0,31.0,-100.00,North,0,16.0,22.0,89,0.13,,,-99.99,,2013-05-03 06:21:00,
2013-05-03 01:32:00,34.0,31.0,-100.00,North,0,20.0,24.0,90,0.18,,,-99.99,,2013-05-03 06:32:00,
2013-05-03 01:42:00,34.0,31.0,-100.00,North,0,20.0,24.0,90,0.18,,,-99.99,,2013-05-03 06:42:00,
2013-05-03 01:51:00,34.0,31.0,-100.00,North,355,17.0,26.0,90,0.10,,,-99.99,,2013-05-03 06:51:00,
2013-05-03 02:01:00,34.0,31.0,-100.00,North,355,17.0,26.0,90,0.10,,,-99.99,,2013-05-03 07:01:00,
2013-05-03 02:11:00,34.0,31.0,-100.00,North,0,17.0,24.0,90,0.07,,,-99.99,,2013-05-03 07:11:00,
2013-05-03 02:21:00,34.0,31.0,-100.00,North,355,16.0,26.0,90,0.11,,,-99.99,,2013-05-03 07:21:00,
2013-05-03 02:31:00,34.0,31.0,-100.00,North,0,18.0,27.0,90,0.13,,,-99.99,,2013-05-03 07:31:00,
2013-05-03 02:42:00,34.0,31.0,-100.00,North,0,18.0,27.0,90,0.13,,,-99.99,,2013-05-03 07:42:00,
2013-05-03 02:52:00,34.0,31.0,-100.00,North,0,18.0,24.0,90,0.03,,,-99.99,,2013-05-03 07:52:00,
2013-05-03 03:01:00,34.0,31.0,-100.00,North,0,18.0,24.0,90,0.03,,,-99.99,,2013-05-03 08:01:00,
2013-05-03 03:11:00,34.0,31.0,-100.00,NNW,345,17.0,22.0,90,0.01,,,-99.99,,2013-05-03 08:11:00,
2013-05-03 03:21:00,34.0,31.0,-100.00,NNW,345,17.0,22.0,90,0.01,,,-99.99,,2013-05-03 08:21:00,
2013-05-03 03:32:00,34.0,31.0,-100.00,North,0,13.0,24.0,90,0.07,,,-99.99,,2013-05-03 08:32:00,
2013-05-03 03:42:00,34.0,31.0,-100.00,North,0,13.0,24.0,90,0.07,,,-99.99,,2013-05-03 08:42:00,
2013-05-03 03:52:00,34.0,31.0,-100.00,North,0,19.0,26.0,90,0.14,,,-99.99,,2013-05-03 08:52:00,
2013-05-03 04:01:00,34.0,31.0,-100.00,North,0,19.0,26.0,90,0.14,,,-99.99,,2013-05-03 09:01:00,
2013-05-03 04:11:00,33.0,31.0,-100.00,North,350,21.0,29.0,90,0.18,,,-99.99,,2013-05-03 09:11:00,
2013-05-03 04:21:00,33.0,31.0,-100.00,North,10,17.0,24.0,90,0.27,,,-99.99,,2013-05-03 09:21:00,
2013-05-03 04:32:00,33.0,31.0,-100.00,North,355,17.0,25.0,90,0.28,,,-99.99,,2013-05-03 09:32:00,
2013-05-03 04:42:00,33.0,31.0,-100.00,North,355,17.0,25.0,90,0.28,,,-99.99,,2013-05-03 09:42:00,
2013-05-03 04:52:00,33.0,31.0,-100.00,North,350,18.0,-999.0,90,0.13,,,-99.99,,2013-05-03 09:52:00,
2013-05-03 05:02:00,33.0,31.0,-100.00,North,350,18.0,-999.0,90,0.13,,,-99.99,,2013-05-03 10:02:00,
2013-05-03 05:12:00,33.0,31.0,-100.00,North,355,17.0,27.0,90,0.08,,,-99.99,,2013-05-03 10:12:00,
2013-05-03 05:22:00,33.0,31.0,-100.00,North,0,19.0,26.0,90,0.16,,,-99.99,,2013-05-03 10:22:00,
2013-05-03 05:32:00,33.0,31.0,-100.00,North,0,19.0,27.0,90,0.08,,,-99.99,,2013-05-03 10:32:00,
2013-05-03 05:42:00,33.0,31.0,-100.00,North,0,19.0,27.0,90,0.08,,,-99.99,,2013-05-03 10:42:00,
2013-05-03 05:52:00,33.0,31.0,-100.00,NNW,345,17.0,28.0,90,0.04,,,-99.99,,2013-05-03 10:52:00,
2013-05-03 06:02:00,33.0,31.0,-100.00,NNW,345,17.0,28.0,90,0.04,,,-99.99,,2013-05-03 11:02:00,
2013-05-03 06:11:00,33.0,31.0,-100.00,North,355,17.0,25.0,90,0.07,,,-99.99,,2013-05-03 11:11:00,
2013-05-03 06:22:00,33.0,31.0,-100.00,North,355,16.0,23.0,90,0.10,,,-99.99,,2013-05-03 11:22:00,
2013-05-03 06:32:00,33.0,31.0,-100.00,North,350,16.0,21.0,90,0.08,,,-99.99,,2013-05-03 11:32:00,
2013-05-03 06:42:00,33.0,31.0,-100.00,North,350,16.0,21.0,90,0.08,,,-99.99,,2013-05-03 11:42:00,
2013-05-03 06:51:00,33.0,31.0,-100.00,North,0,17.0,24.0,90,0.13,,,-99.99,,2013-05-03 11:51:00,
2013-05-03 07:01:00,33.0,31.0,-100.00,North,0,17.0,24.0,90,0.13,,,-99.99,,2013-05-03 12:01:00,
2013-05-03 07:11:00,33.0,31.0,-100.00,North,355,18.0,24.0,90,0.14,,,-99.99,,2013-05-03 12:11:00,
2013-05-03 07:21:00,33.0,31.0,-100.00,North,0,17.0,23.0,90,0.18,,,-99.99,,2013-05-03 12:21:00,
2013-05-03 07:32:00,33.0,31.0,-100.00,North,355,14.0,24.0,90,0.06,,,-99.99,,2013-05-03 12:32:00,
2013-05-03 07:42:00,33.0,31.0,-100.00,North,355,14.0,24.0,90,0.06,,,-99.99,,2013-05-03 12:42:00,
2013-05-03 07:51:00,33.0,31.0,-100.00,North,355,16.0,24.0,90,0.34,,,-99.99,,2013-05-03 12:51:00,
2013-05-03 08:01:00,33.0,31.0,-100.00,North,355,16.0,24.0,90,0.34,,,-99.99,,2013-05-03 13:01:00,
2013-05-03 08:11:00,33.0,31.0,-100.00,North,0,15.0,23.0,90,0.03,,,-99.99,,2013-05-03 13:11:00,
2013-05-03 08:22:00,33.0,31.0,-100.00,NNW,335,13.0,23.0,90,0.59,,,-99.99,,2013-05-03 13:22:00,
2013-05-03 08:32:00,33.0,31.0,-100.00,NNW,330,14.0,26.0,90,0.03,,,-99.99,,2013-05-03 13:32:00,
2013-05-03 08:42:00,33.0,31.0,-100.00,NNW,330,14.0,26.0,90,0.03,,,-99.99,,2013-05-03 13:42:00,
2013-05-03 08:52:00,33.0,31.0,-100.00,NNW,345,14.0,24.0,90,0.45,,,-99.99,,2013-05-03 13:52:00,
2013-05-03 09:02:00,33.0,31.0,-100.00,NNW,345,14.0,24.0,90,0.45,,,-99.99,,2013-05-03 14:02:00,
2013-05-03 09:11:00,33.0,31.0,-100.00,NNW,345,16.0,24.0,90,0.06,,,-99.99,,2013-05-03 14:11:00,
2013-05-03 09:22:00,33.0,31.0,-100.00,North,0,18.0,24.0,90,0.44,,,-99.99,,2013-05-03 14:22:00,
2013-05-03 09:32:00,33.0,31.0,-100.00,North,355,17.0,24.0,90,0.38,,,-99.99,,2013-05-03 14:32:00,
2013-05-03 09:42:00,33.0,31.0,-100.00,North,355,17.0,24.0,90,0.38,,,-99.99,,2013-05-03 14:42:00,
2013-05-03 09:52:00,34.0,31.0,-100.00,North,355,14.0,26.0,90,0.03,,,-99.99,,2013-05-03 14:52:00,
2013-05-03 10:01:00,34.0,31.0,-100.00,North,355,14.0,26.0,90,0.03,,,-99.99,,2013-05-03 15:01:00,
2013-05-03 10:11:00,34.0,31.0,-100.00,North,0,14.0,23.0,90,0.25,,,-99.99,,2013-05-03 15:11:00,
2013-05-03 10:22:00,34.0,31.0,-100.00,North,0,15.0,26.0,90,0.10,,,-99.99,,2013-05-03 15:22:00,
2013-05-03 10:32:00,33.0,31.0,-100.00,NNW,340,19.0,24.0,90,0.11,,,-99.99,,2013-05-03 15:32:00,
2013-05-03 10:43:00,33.0,31.0,-100.00,NNW,340,19.0,24.0,90,0.11,,,-99.99,,2013-05-03 15:43:00,
2013-05-03 10:53:00,33.0,31.0,-100.00,North,0,19.0,26.0,90,0.01,,,-99.99,,2013-05-03 15:53:00,
2013-05-03 11:03:00,33.0,31.0,-100.00,North,0,19.0,26.0,90,0.01,,,-99.99,,2013-05-03 16:03:00,
2013-05-03 11:12:00,33.0,31.0,-100.00,North,5,17.0,24.0,90,0.00,,,-99.99,,2013-05-03 16:12:00,
2013-05-03 11:22:00,34.0,31.0,-100.00,North,0,19.0,26.0,90,0.03,,,-99.99,,2013-05-03 16:22:00,
2013-05-03 11:32:00,33.0,31.0,-100.00,North,0,17.0,24.0,90,0.03,,,-99.99,,2013-05-03 16:32:00,
2013-05-03 11:42:00,33.0,31.0,-100.00,North,0,17.0,24.0,90,0.03,,,-99.99,,2013-05-03 16:42:00,
2013-05-03 11:52:00,34.0,31.0,-100.00,North,0,19.0,29.0,90,0.01,,,-99.99,,2013-05-03 16:52:00,
2013-05-03 12:02:00,34.0,31.0,-100.00,North,0,19.0,29.0,90,0.01,,,-99.99,,2013-05-03 17:02:00,
2013-05-03 12:12:00,33.0,31.0,-100.00,North,5,18.0,26.0,90,0.00,,,-99.99,,2013-05-03 17:12:00,
2013-05-03 12:23:00,34.0,31.0,-100.00,North,0,16.0,26.0,90,0.00,,,-99.99,,2013-05-03 17:23:00,
2013-05-03 12:32:00,33.0,31.0,-100.00,North,0,20.0,26.0,90,0.01,,,-99.99,,2013-05-03 17:32:00,
2013-05-03 12:42:00,33.0,31.0,-100.00,North,0,20.0,26.0,90,0.01,,,-99.99,,2013-05-03 17:42:00,
2013-05-03 12:51:00,33.0,31.0,-100.00,NNW,335,17.0,22.0,90,0.03,,,-99.99,,2013-05-03 17:51:00,
2013-05-03 13:01:00,33.0,31.0,-100.00,NNW,335,17.0,22.0,90,0.03,,,-99.99,,2013-05-03 18:01:00,
2013-05-03 13:12:00,33.0,31.0,-100.00,North,0,17.0,26.0,90,0.00,,,-99.99,,2013-05-03 18:12:00,
2013-05-03 13:21:00,33.0,31.0,-100.00,North,5,17.0,23.0,90,0.00,,,-99.99,,2013-05-03 18:21:00,
2013-05-03 13:32:00,33.0,31.0,-100.00,North,0,17.0,24.0,88,0.00,,,-99.99,,2013-05-03 18:32:00,
2013-05-03 13:42:00,33.0,31.0,-100.00,North,0,17.0,24.0,88,0.00,,,-99.99,,2013-05-03 18:42:00,
2013-05-03 13:51:00,34.0,31.0,-100.00,North,0,14.0,21.0,87,0.04,,,-99.99,,2013-05-03 18:51:00,
2013-05-03 14:01:00,34.0,31.0,-100.00,North,0,14.0,21.0,87,0.04,,,-99.99,,2013-05-03 19:01:00,
2013-05-03 14:11:00,34.0,31.0,-100.00,North,0,16.0,24.0,86,0.03,,,-99.99,,2013-05-03 19:11:00,
2013-05-03 14:21:00,34.0,31.0,-100.00,North,0,15.0,24.0,86,0.04,,,-99.99,,2013-05-03 19:21:00,
2013-05-03 14:32:00,34.0,31.0,-100.00,North,0,17.0,26.0,86,0.04,,,-99.99,,2013-05-03 19:32:00,
2013-05-03 14:41:00,34.0,31.0,-100.00,North,0,17.0,26.0,86,0.04,,,-99.99,,2013-05-03 19:41:00,
2013-05-03 14:52:00,34.0,30.0,-100.00,North,0,19.0,24.0,86,0.06,,,-99.99,,2013-05-03 19:52:00,
2013-05-03 15:02:00,34.0,30.0,-100.00,North,0,19.0,24.0,86,0.06,,,-99.99,,2013-05-03 20:02:00,
2013-05-03 15:11:00,34.0,31.0,-100.00,North,0,16.0,24.0,86,0.00,,,-99.99,,2013-05-03 20:11:00,
2013-05-03 15:21:00,34.0,31.0,-100.00,North,350,17.0,24.0,86,0.34,,,-99.99,,2013-05-03 20:21:00,
2013-05-03 15:31:00,34.0,31.0,-100.00,North,0,20.0,24.0,86,0.11,,,-99.99,,2013-05-03 20:31:00,
2013-05-03 15:41:00,34.0,31.0,-100.00,North,0,20.0,24.0,86,0.11,,,-99.99,,2013-05-03 20:41:00,
2013-05-03 15:52:00,34.0,31.0,-100.00,North,0,16.0,24.0,86,0.00,,,-99.99,,2013-05-03 20:52:00,
2013-05-03 16:01:00,34.0,31.0,-100.00,North,0,16.0,24.0,86,0.00,,,-99.99,,2013-05-03 21:01:00,
2013-05-03 16:11:00,34.0,31.0,-100.00,North,0,17.0,24.0,86,0.00,,,-99.99,,2013-05-03 21:11:00,
2013-05-03 16:21:00,35.0,31.0,-100.00,North,0,14.0,22.0,86,0.01,,,-99.99,,2013-05-03 21:21:00,
2013-05-03 16:33:00,35.0,31.0,-100.00,North,0,15.0,21.0,86,0.04,,,-99.99,,2013-05-03 21:33:00,
2013-05-03 16:42:00,35.0,31.0,-100.00,North,0,15.0,21.0,86,0.04,,,-99.99,,2013-05-03 21:42:00,
2013-05-03 16:52:00,35.0,31.0,-100.00,NNW,335,17.0,27.0,86,0.04,,,-99.99,,2013-05-03 21:52:00,
2013-05-03 17:02:00,35.0,31.0,-100.00,NNW,335,17.0,27.0,86,0.04,,,-99.99,,2013-05-03 22:02:00,
2013-05-03 17:12:00,35.0,31.0,-100.00,North,0,16.0,24.0,86,0.03,,,-99.99,,2013-05-03 22:12:00,
2013-05-03 17:22:00,35.0,31.0,-100.00,NNW,345,14.0,23.0,86,0.03,,,-99.99,,2013-05-03 22:22:00,
2013-05-03 17:32:00,35.0,31.0,-100.00,North,0,21.0,26.0,85,0.03,,,-99.99,,2013-05-03 22:32:00,
2013-05-03 17:42:00,35.0,31.0,-100.00,North,0,21.0,26.0,85,0.03,,,-99.99,,2013-05-03 22:42:00,
2013-05-03 17:52:00,35.0,31.0,-100.00,North,0,23.0,31.0,84,0.04,,,-99.99,,2013-05-03 22:52:00,
2013-05-03 18:02:00,35.0,31.0,-100.00,North,0,23.0,31.0,84,0.04,,,-99.99,,2013-05-03 23:02:00,
2013-05-03 18:11:00,35.0,30.0,-100.00,North,0,24.0,31.0,83,0.00,,,-99.99,,2013-05-03 23:11:00,
2013-05-03 18:21:00,35.0,30.0,-100.00,North,0,24.0,31.0,83,0.00,,,-99.99,,2013-05-03 23:21:00,
2013-05-03 18:31:00,35.0,30.0,-100.00,North,5,16.0,25.0,82,0.00,,,-99.99,,2013-05-03 23:31:00,
2013-05-03 18:41:00,35.0,30.0,-100.00,North,5,16.0,25.0,82,0.00,,,-99.99,,2013-05-03 23:41:00,
2013-05-03 18:51:00,35.0,30.0,-100.00,North,5,16.0,26.0,82,0.00,,,-99.99,,2013-05-03 23:51:00,
2013-05-03 19:01:00,35.0,30.0,-100.00,North,5,16.0,26.0,82,0.00,,,-99.99,,2013-05-04 00:01:00,
2013-05-03 19:11:00,35.0,30.0,-100.00,North,0,17.0,24.0,82,0.00,,,-99.99,,2013-05-04 00:11:00,
2013-05-03 19:22:00,35.0,30.0,-100.00,North,0,17.0,24.0,82,0.00,,,-99.99,,2013-05-04 00:22:00,
2013-05-03 19:31:00,35.0,30.0,-100.00,North,355,14.0,21.0,83,0.08,,,-99.99,,2013-05-04 00:31:00,
2013-05-03 19:41:00,35.0,30.0,-100.00,North,355,14.0,21.0,83,0.08,,,-99.99,,2013-05-04 00:41:00,
2013-05-03 19:52:00,35.0,30.0,-100.00,North,0,19.0,25.0,84,0.00,,,-99.99,,2013-05-04 00:52:00,
2013-05-03 20:01:00,35.0,30.0,-100.00,North,0,19.0,25.0,84,0.00,,,-99.99,,2013-05-04 01:01:00,
2013-05-03 20:11:00,35.0,31.0,-100.00,North,0,18.0,26.0,84,0.04,,,-99.99,,2013-05-04 01:11:00,
2013-05-03 20:21:00,35.0,31.0,-100.00,North,0,18.0,26.0,84,0.04,,,-99.99,,2013-05-04 01:21:00,
2013-05-03 20:32:00,35.0,31.0,-100.00,North,0,16.0,23.0,84,0.00,,,-99.99,,2013-05-04 01:32:00,
2013-05-03 20:41:00,35.0,31.0,-100.00,North,0,16.0,23.0,84,0.00,,,-99.99,,2013-05-04 01:41:00,
2013-05-03 20:52:00,35.0,31.0,-100.00,North,0,18.0,26.0,84,0.00,,,-99.99,,2013-05-04 01:52:00,
2013-05-03 21:02:00,35.0,31.0,-100.00,North,0,18.0,26.0,84,0.00,,,-99.99,,2013-05-04 02:02:00,
2013-05-03 21:11:00,35.0,31.0,-100.00,North,0,17.0,24.0,85,0.00,,,-99.99,,2013-05-04 02:11:00,
2013-05-03 21:21:00,35.0,31.0,-100.00,North,0,17.0,24.0,85,0.00,,,-99.99,,2013-05-04 02:21:00,
2013-05-03 21:32:00,35.0,31.0,-100.00,North,0,19.0,24.0,85,0.03,,,-99.99,,2013-05-04 02:32:00,
2013-05-03 21:41:00,35.0,31.0,-100.00,North,0,19.0,24.0,85,0.03,,,-99.99,,2013-05-04 02:41:00,
2013-05-03 21:52:00,34.0,31.0,-100.00,North,0,19.0,26.0,86,0.30,,,-99.99,,2013-05-04 02:52:00,
2013-05-03 22:02:00,34.0,31.0,-100.00,North,0,19.0,26.0,86,0.30,,,-99.99,,2013-05-04 03:02:00,
2013-05-03 22:11:00,34.0,31.0,-100.00,North,0,18.0,24.0,86,0.28,,,-99.99,,2013-05-04 03:11:00,
2013-05-03 22:21:00,34.0,31.0,-100.00,North,0,20.0,26.0,87,0.24,,,-99.99,,2013-05-04 03:21:00,
2013-05-03 22:33:00,34.0,31.0,-100.00,North,0,19.0,25.0,87,0.13,,,-99.99,,2013-05-04 03:33:00,
2013-05-03 22:43:00,34.0,31.0,-100.00,North,0,19.0,25.0,87,0.13,,,-99.99,,2013-05-04 03:43:00,
2013-05-03 22:52:00,34.0,31.0,-100.00,North,0,19.0,26.0,88,0.20,,,-99.99,,2013-05-04 03:52:00,
2013-05-03 23:02:00,34.0,31.0,-100.00,North,0,19.0,26.0,88,0.20,,,-99.99,,2013-05-04 04:02:00,
2013-05-03 23:12:00,34.0,31.0,-100.00,North,0,19.0,28.0,88,0.28,,,-99.99,,2013-05-04 04:12:00,
2013-05-03 23:22:00,34.0,31.0,-100.00,North,0,17.0,27.0,88,0.04,,,-99.99,,2013-05-04 04:22:00,
2013-05-03 23:32:00,34.0,31.0,-100.00,North,0,20.0,26.0,88,0.25,,,-99.99,,2013-05-04 04:32:00,
2013-05-03 23:42:00,34.0,31.0,-100.00,North,0,20.0,26.0,88,0.25,,,-99.99,,2013-05-04 04:42:00,
2013-05-03 23:52:00,34.0,31.0,-100.00,North,5,19.0,26.0,88,0.31,,,-99.99,,2013-05-04 04:52:00,